Time,TemperatureF,DewpointF,PressureIn,WindDirection,WindDirectionDegrees,WindSpeedMPH,WindSpeedGustMPH,Humidity,HourlyPrecipIn,Conditions,Clouds,dailyrainin,SoftwareType,DateUTC
2013-07-24 00:01:00,70.8,51.8,29.91,NNW,331,0.0,0.0,51,0.00,,,0.00,WeatherCatV1.20B785,2013-07-24 07:01:00,
2013-07-24 00:06:00,70.7,51.1,29.91,NNW,331,0.0,0.0,50,0.00,,,0.00,WeatherCatV1.20B785,2013-07-24 07:06:00,
2013-07-24 00:11:00,70.4,52.4,29.91,NNW,331,0.0,0.0,53,0.00,,,0.00,WeatherCatV1.20B785,2013-07-24 07:11:00,
2013-07-24 00:16:00,70.2,52.2,29.91,NNW,331,0.0,0.0,53,0.00,,,0.00,WeatherCatV1.20B785,2013-07-24 07:16:00,
2013-07-24 00:21:00,70.1,52.2,29.91,NNW,331,0.0,0.0,53,0.00,,,0.00,WeatherCatV1.20B785,2013-07-24 07:21:00,
2013-07-24 00:26:00,69.8,52.4,29.91,NNW,331,0.0,0.0,54,0.00,,,0.00,WeatherCatV1.20B785,2013-07-24 07:26:00,
2013-07-24 00:31:00,69.5,52.6,29.90,NNW,331,0.0,0.0,55,0.00,,,0.00,WeatherCatV1.20B785,2013-07-24 07:31:00,
2013-07-24 00:36:00,69.2,52.3,29.90,NNW,331,0.0,0.0,55,0.00,,,0.00,WeatherCatV1.20B785,2013-07-24 07:36:00,
2013-07-24 00:41:00,69.0,52.6,29.90,NNW,331,0.0,0.0,56,0.00,,,0.00,WeatherCatV1.20B785,2013-07-24 07:41:00,
2013-07-24 00:46:00,68.8,52.5,29.90,NNW,331,0.0,0.0,56,0.00,,,0.00,WeatherCatV1.20B785,2013-07-24 07:46:00,
2013-07-24 00:51:00,68.6,52.3,29.90,NNW,331,0.0,0.0,56,0.00,,,0.00,WeatherCatV1.20B785,2013-07-24 07:51:00,
2013-07-24 00:55:00,68.5,52.2,29.90,NNW,331,0.0,0.0,56,0.00,,,0.00,WeatherCatV1.20B785,2013-07-24 07:55:00,
2013-07-24 00:56:00,68.4,52.1,29.90,NNW,331,0.0,0.0,56,0.00,,,0.00,WeatherCatV1.20B785,2013-07-24 07:56:00,
2013-07-24 01:01:00,68.2,51.9,29.90,NNW,331,0.0,0.0,56,0.00,,,0.00,WeatherCatV1.20B785,2013-07-24 08:01:00,
2013-07-24 01:06:00,68.0,51.2,29.90,NNW,331,0.0,0.0,55,0.00,,,0.00,WeatherCatV1.20B785,2013-07-24 08:06:00,
2013-07-24 01:11:00,68.0,51.2,29.90,NNW,331,0.0,0.0,55,0.00,,,0.00,WeatherCatV1.20B785,2013-07-24 08:11:00,
2013-07-24 01:16:00,67.9,53.5,29.90,NNW,331,0.0,0.0,60,0.00,,,0.00,WeatherCatV1.20B785,2013-07-24 08:16:00,
2013-07-24 01:21:00,67.9,53.0,29.90,NNW,331,0.0,0.0,59,0.00,,,0.00,WeatherCatV1.20B785,2013-07-24 08:21:00,
2013-07-24 01:26:00,67.8,53.4,29.90,NNW,331,0.0,0.0,60,0.00,,,0.00,WeatherCatV1.20B785,2013-07-24 08:26:00,
2013-07-24 01:31:00,67.7,53.8,29.90,NNW,331,0.0,0.0,61,0.00,,,0.00,WeatherCatV1.20B785,2013-07-24 08:31:00,
2013-07-24 01:36:00,67.6,53.7,29.90,NNW,331,0.0,0.0,61,0.00,,,0.00,WeatherCatV1.20B785,2013-07-24 08:36:00,
2013-07-24 01:41:00,67.5,53.1,29.90,NNW,331,0.0,0.0,60,0.00,,,0.00,WeatherCatV1.20B785,2013-07-24 08:41:00,
2013-07-24 01:46:00,67.5,53.1,29.90,NNW,331,0.0,0.0,60,0.00,,,0.00,WeatherCatV1.20B785,2013-07-24 08:46:00,
2013-07-24 01:51:00,67.4,53.0,29.90,NNW,331,0.0,0.0,60,0.00,,,0.00,WeatherCatV1.20B785,2013-07-24 08:51:00,
2013-07-24 01:56:00,67.3,53.4,29.90,NNW,331,0.0,0.0,61,0.00,,,0.00,WeatherCatV1.20B785,2013-07-24 08:56:00,
2013-07-24 02:01:00,67.2,53.7,29.90,NNW,331,0.0,0.0,62,0.00,,,0.00,WeatherCatV1.20B785,2013-07-24 09:01:00,
2013-07-24 02:06:00,67.1,53.6,29.90,NNW,331,0.0,0.0,62,0.00,,,0.00,WeatherCatV1.20B785,2013-07-24 09:06:00,
2013-07-24 02:11:00,67.0,53.5,29.90,NNW,331,0.0,0.0,62,0.00,,,0.00,WeatherCatV1.20B785,2013-07-24 09:11:00,
2013-07-24 02:16:00,66.8,53.3,29.89,NNW,331,0.0,0.0,62,0.00,,,0.00,WeatherCatV1.20B785,2013-07-24 09:16:00,
2013-07-24 02:21:00,66.6,53.2,29.89,NNW,331,0.0,0.0,62,0.00,,,0.00,WeatherCatV1.20B785,2013-07-24 09:21:00,
2013-07-24 02:26:00,66.5,52.6,29.89,NNW,331,0.0,0.0,61,0.00,,,0.00,WeatherCatV1.20B785,2013-07-24 09:26:00,
2013-07-24 02:31:00,66.4,53.0,29.89,NNW,331,0.0,0.0,62,0.00,,,0.00,WeatherCatV1.20B785,2013-07-24 09:31:00,
2013-07-24 02:36:00,66.3,52.9,29.89,NNW,331,0.0,0.0,62,0.00,,,0.00,WeatherCatV1.20B785,2013-07-24 09:36:00,
2013-07-24 02:41:00,66.3,53.3,29.89,NNW,331,0.0,0.0,63,0.00,,,0.00,WeatherCatV1.20B785,2013-07-24 09:41:00,
2013-07-24 02:46:00,66.2,53.2,29.89,NNW,331,0.0,0.0,63,0.00,,,0.00,WeatherCatV1.20B785,2013-07-24 09:46:00,
2013-07-24 02:51:00,66.2,53.2,29.89,NNW,331,0.0,0.0,63,0.00,,,0.00,WeatherCatV1.20B785,2013-07-24 09:51:00,
2013-07-24 02:56:00,66.3,53.3,29.89,NNW,331,0.0,0.0,63,0.00,,,0.00,WeatherCatV1.20B785,2013-07-24 09:56:00,
2013-07-24 03:01:00,66.3,53.3,29.89,NNW,331,0.0,0.0,63,0.00,,,0.00,WeatherCatV1.20B785,2013-07-24 10:01:00,
2013-07-24 03:06:00,66.3,53.3,29.89,NNW,331,0.0,0.0,63,0.00,,,0.00,WeatherCatV1.20B785,2013-07-24 10:06:00,
2013-07-24 03:11:00,66.1,53.6,29.89,NNW,331,1.0,2.0,64,0.00,,,0.00,WeatherCatV1.20B785,2013-07-24 10:11:00,
2013-07-24 03:16:00,65.9,53.4,29.89,NNW,331,0.0,0.0,64,0.00,,,0.00,WeatherCatV1.20B785,2013-07-24 10:16:00,
2013-07-24 03:21:00,65.8,53.3,29.89,NNW,331,0.0,0.0,64,0.00,,,0.00,WeatherCatV1.20B785,2013-07-24 10:21:00,
2013-07-24 03:26:00,65.8,52.4,29.89,NNW,331,0.0,0.0,62,0.00,,,0.00,WeatherCatV1.20B785,2013-07-24 10:26:00,
2013-07-24 03:31:00,65.8,49.2,29.89,NNW,331,0.0,0.0,55,0.00,,,0.00,WeatherCatV1.20B785,2013-07-24 10:31:00,
2013-07-24 03:36:00,66.0,45.7,29.89,NNW,331,0.0,0.0,48,0.00,,,0.00,WeatherCatV1.20B785,2013-07-24 10:36:00,
2013-07-24 03:41:00,66.5,48.8,29.89,NNW,331,0.0,0.0,53,0.00,,,0.00,WeatherCatV1.20B785,2013-07-24 10:41:00,
2013-07-24 03:46:00,66.7,50.5,29.89,NNW,331,0.0,0.0,56,0.00,,,0.00,WeatherCatV1.20B785,2013-07-24 10:46:00,
2013-07-24 03:51:00,66.9,51.2,29.89,NNW,331,0.0,0.0,57,0.00,,,0.00,WeatherCatV1.20B785,2013-07-24 10:51:00,
2013-07-24 03:56:00,66.9,50.7,29.89,NNW,331,0.0,0.0,56,0.00,,,0.00,WeatherCatV1.20B785,2013-07-24 10:56:00,
2013-07-24 04:01:00,66.9,51.2,29.89,NNW,331,0.0,0.0,57,0.00,,,0.00,WeatherCatV1.20B785,2013-07-24 11:01:00,
2013-07-24 04:06:00,66.8,50.6,29.89,NNW,331,0.0,0.0,56,0.00,,,0.00,WeatherCatV1.20B785,2013-07-24 11:06:00,
2013-07-24 04:11:00,66.7,51.0,29.89,NNW,331,0.0,0.0,57,0.00,,,0.00,WeatherCatV1.20B785,2013-07-24 11:11:00,
2013-07-24 04:16:00,66.6,48.9,29.88,NNW,331,0.0,2.0,53,0.00,,,0.00,WeatherCatV1.20B785,2013-07-24 11:16:00,
2013-07-24 04:21:00,66.5,45.6,29.88,NNW,331,0.0,0.0,47,0.00,,,0.00,WeatherCatV1.20B785,2013-07-24 11:21:00,
2013-07-24 04:26:00,66.6,48.9,29.88,NNW,331,0.0,0.0,53,0.00,,,0.00,WeatherCatV1.20B785,2013-07-24 11:26:00,
2013-07-24 04:31:00,66.7,49.5,29.88,NNW,331,0.0,0.0,54,0.00,,,0.00,WeatherCatV1.20B785,2013-07-24 11:31:00,
2013-07-24 04:36:00,66.9,50.2,29.88,NNW,331,0.0,0.0,55,0.00,,,0.00,WeatherCatV1.20B785,2013-07-24 11:36:00,
2013-07-24 04:41:00,67.0,48.8,29.88,NNW,331,0.0,0.0,52,0.00,,,0.00,WeatherCatV1.20B785,2013-07-24 11:41:00,
2013-07-24 04:46:00,67.0,48.8,29.89,NNW,331,0.0,0.0,52,0.00,,,0.00,WeatherCatV1.20B785,2013-07-24 11:46:00,
2013-07-24 04:51:00,66.9,49.7,29.89,NNW,331,0.0,0.0,54,0.00,,,0.00,WeatherCatV1.20B785,2013-07-24 11:51:00,
2013-07-24 04:56:00,66.8,49.1,29.89,NNW,331,0.0,0.0,53,0.00,,,0.00,WeatherCatV1.20B785,2013-07-24 11:56:00,
2013-07-24 05:01:00,66.7,48.5,29.89,NNW,331,0.0,0.0,52,0.00,,,0.00,WeatherCatV1.20B785,2013-07-24 12:01:00,
2013-07-24 05:06:00,66.5,48.8,29.89,NNW,331,0.0,0.0,53,0.00,,,0.00,WeatherCatV1.20B785,2013-07-24 12:06:00,
2013-07-24 05:11:00,66.5,48.8,29.89,NNW,331,0.0,0.0,53,0.00,,,0.00,WeatherCatV1.20B785,2013-07-24 12:11:00,
2013-07-24 05:16:00,66.3,46.0,29.89,NNW,331,0.0,0.0,48,0.00,,,0.00,WeatherCatV1.20B785,2013-07-24 12:16:00,
2013-07-24 05:21:00,66.3,45.5,29.89,NNW,331,0.0,0.0,47,0.00,,,0.00,WeatherCatV1.20B785,2013-07-24 12:21:00,
2013-07-24 05:26:00,66.2,44.8,29.89,NNW,331,0.0,0.0,46,0.00,,,0.00,WeatherCatV1.20B785,2013-07-24 12:26:00,
2013-07-24 05:31:00,66.3,46.0,29.89,NNW,331,0.0,0.0,48,0.00,,,0.00,WeatherCatV1.20B785,2013-07-24 12:31:00,
2013-07-24 05:36:00,66.3,46.6,29.89,NNW,331,0.0,0.0,49,0.00,,,0.00,WeatherCatV1.20B785,2013-07-24 12:36:00,
2013-07-24 05:41:00,66.3,47.1,29.89,NNW,331,0.0,0.0,50,0.00,,,0.00,WeatherCatV1.20B785,2013-07-24 12:41:00,
2013-07-24 05:46:00,66.2,47.0,29.89,NNW,331,0.0,0.0,50,0.00,,,0.00,WeatherCatV1.20B785,2013-07-24 12:46:00,
2013-07-24 05:51:00,66.2,45.9,29.89,NNW,331,0.0,0.0,48,0.00,,,0.00,WeatherCatV1.20B785,2013-07-24 12:51:00,
2013-07-24 05:56:00,66.2,41.8,29.89,NNW,331,1.0,2.0,41,0.00,,,0.00,WeatherCatV1.20B785,2013-07-24 12:56:00,
2013-07-24 06:01:00,66.6,41.5,29.89,NNW,331,0.0,0.0,40,0.00,,,0.00,WeatherCatV1.20B785,2013-07-24 13:01:00,
2013-07-24 06:06:00,66.9,45.4,29.89,NNW,331,0.0,0.0,46,0.00,,,0.00,WeatherCatV1.20B785,2013-07-24 13:06:00,
2013-07-24 06:11:00,67.1,45.0,29.89,NNW,331,0.0,0.0,45,0.00,,,0.00,WeatherCatV1.20B785,2013-07-24 13:11:00,
2013-07-24 06:16:00,67.2,43.3,29.89,NNW,331,0.0,0.0,42,0.00,,,0.00,WeatherCatV1.20B785,2013-07-24 13:16:00,
2013-07-24 06:21:00,67.2,39.3,29.89,NNW,331,0.0,0.0,36,0.00,,,0.00,WeatherCatV1.20B785,2013-07-24 13:21:00,
2013-07-24 06:26:00,67.3,36.4,29.89,NNW,331,0.0,1.0,32,0.00,,,0.00,WeatherCatV1.20B785,2013-07-24 13:26:00,
2013-07-24 06:31:00,67.7,35.1,29.89,NNW,331,0.0,0.0,30,0.00,,,0.00,WeatherCatV1.20B785,2013-07-24 13:31:00,
2013-07-24 06:36:00,68.1,35.5,29.89,NNW,331,0.0,0.0,30,0.00,,,0.00,WeatherCatV1.20B785,2013-07-24 13:36:00,
2013-07-24 06:41:00,68.3,34.8,29.89,NNW,331,0.0,0.0,29,0.00,,,0.00,WeatherCatV1.20B785,2013-07-24 13:41:00,
2013-07-24 06:46:00,68.5,34.1,29.89,NNW,331,0.0,0.0,28,0.00,,,0.00,WeatherCatV1.20B785,2013-07-24 13:46:00,
2013-07-24 06:51:00,68.8,34.4,29.89,NNW,331,0.0,0.0,28,0.00,,,0.00,WeatherCatV1.20B785,2013-07-24 13:51:00,
2013-07-24 06:56:00,69.0,36.3,29.89,NNW,331,0.0,0.0,30,0.00,,,0.00,WeatherCatV1.20B785,2013-07-24 13:56:00,
2013-07-24 07:01:00,69.2,37.3,29.89,NNW,331,0.0,0.0,31,0.00,,,0.00,WeatherCatV1.20B785,2013-07-24 14:01:00,
2013-07-24 07:06:00,69.3,43.9,29.89,NNW,331,0.0,0.0,40,0.00,,,0.00,WeatherCatV1.20B785,2013-07-24 14:06:00,
2013-07-24 07:11:00,69.3,45.2,29.89,NNW,331,0.0,0.0,42,0.00,,,0.00,WeatherCatV1.20B785,2013-07-24 14:11:00,
2013-07-24 07:16:00,69.2,45.1,29.90,NNW,331,0.0,0.0,42,0.00,,,0.00,WeatherCatV1.20B785,2013-07-24 14:16:00,
2013-07-24 07:21:00,69.3,44.6,29.90,NNW,331,0.0,0.0,41,0.00,,,0.00,WeatherCatV1.20B785,2013-07-24 14:21:00,
2013-07-24 07:26:00,69.2,46.3,29.90,NNW,331,0.0,0.0,44,0.00,,,0.00,WeatherCatV1.20B785,2013-07-24 14:26:00,
2013-07-24 07:31:00,69.3,45.8,29.90,NNW,331,0.0,0.0,43,0.00,,,0.00,WeatherCatV1.20B785,2013-07-24 14:31:00,
2013-07-24 07:36:00,69.4,46.5,29.90,NNW,331,0.0,0.0,44,0.00,,,0.00,WeatherCatV1.20B785,2013-07-24 14:36:00,
2013-07-24 07:41:00,69.5,47.2,29.90,NNW,331,0.0,0.0,45,0.00,,,0.00,WeatherCatV1.20B785,2013-07-24 14:41:00,
2013-07-24 07:46:00,69.7,46.2,29.90,NNW,331,0.0,0.0,43,0.00,,,0.00,WeatherCatV1.20B785,2013-07-24 14:46:00,
2013-07-24 07:51:00,69.9,46.4,29.90,NNW,331,0.0,0.0,43,0.00,,,0.00,WeatherCatV1.20B785,2013-07-24 14:51:00,
2013-07-24 07:56:00,69.9,48.2,29.90,NNW,331,0.0,0.0,46,0.00,,,0.00,WeatherCatV1.20B785,2013-07-24 14:56:00,
2013-07-24 08:01:00,69.9,47.6,29.90,NNW,331,0.0,0.0,45,0.00,,,0.00,WeatherCatV1.20B785,2013-07-24 15:01:00,
2013-07-24 08:06:00,69.9,48.7,29.90,NNW,331,0.0,0.0,47,0.00,,,0.00,WeatherCatV1.20B785,2013-07-24 15:06:00,
2013-07-24 08:11:00,70.0,49.4,29.90,NNW,331,0.0,0.0,48,0.00,,,0.00,WeatherCatV1.20B785,2013-07-24 15:11:00,
2013-07-24 08:16:00,70.1,48.9,29.90,NNW,331,0.0,0.0,47,0.00,,,0.00,WeatherCatV1.20B785,2013-07-24 15:16:00,
2013-07-24 08:21:00,70.2,50.1,29.90,NNW,331,0.0,0.0,49,0.00,,,0.00,WeatherCatV1.20B785,2013-07-24 15:21:00,
2013-07-24 08:26:00,70.4,49.8,29.90,NNW,333,0.0,0.0,48,0.00,,,0.00,WeatherCatV1.20B785,2013-07-24 15:26:00,
2013-07-24 08:31:00,70.6,51.6,29.90,NNW,333,0.0,0.0,51,0.00,,,0.00,WeatherCatV1.20B785,2013-07-24 15:31:00,
2013-07-24 08:36:00,70.7,52.2,29.90,NNW,333,0.0,0.0,52,0.00,,,0.00,WeatherCatV1.20B785,2013-07-24 15:36:00,
2013-07-24 08:41:00,70.9,53.4,29.90,NNW,334,0.0,0.0,54,0.00,,,0.00,WeatherCatV1.20B785,2013-07-24 15:41:00,
2013-07-24 08:46:00,71.1,54.1,29.90,NNW,334,0.0,0.0,55,0.00,,,0.00,WeatherCatV1.20B785,2013-07-24 15:46:00,
2013-07-24 08:51:00,71.4,54.4,29.90,NNW,334,0.0,0.0,55,0.00,,,0.00,WeatherCatV1.20B785,2013-07-24 15:51:00,
2013-07-24 08:56:00,71.8,53.7,29.90,NNW,334,0.0,0.0,53,0.00,,,0.00,WeatherCatV1.20B785,2013-07-24 15:56:00,
2013-07-24 09:01:00,72.3,53.7,29.90,NE,35,1.0,1.0,52,0.00,,,0.00,WeatherCatV1.20B785,2013-07-24 16:01:00,
2013-07-24 09:06:00,72.5,54.4,29.90,ESE,107,0.0,1.0,53,0.00,,,0.00,WeatherCatV1.20B785,2013-07-24 16:06:00,
2013-07-24 09:11:00,72.5,54.9,29.90,ESE,111,0.0,1.0,54,0.00,,,0.00,WeatherCatV1.20B785,2013-07-24 16:11:00,
2013-07-24 09:16:00,72.5,55.4,29.91,ESE,114,0.0,1.0,55,0.00,,,0.00,WeatherCatV1.20B785,2013-07-24 16:16:00,
2013-07-24 09:21:00,72.5,55.4,29.91,ESE,117,0.0,1.0,55,0.00,,,0.00,WeatherCatV1.20B785,2013-07-24 16:21:00,
2013-07-24 09:26:00,72.5,55.9,29.91,ESE,117,0.0,0.0,56,0.00,,,0.00,WeatherCatV1.20B785,2013-07-24 16:26:00,
2013-07-24 09:31:00,72.6,55.5,29.91,ESE,122,1.0,1.0,55,0.00,,,0.00,WeatherCatV1.20B785,2013-07-24 16:31:00,
2013-07-24 09:36:00,72.8,55.7,29.91,ESE,123,0.0,1.0,55,0.00,,,0.00,WeatherCatV1.20B785,2013-07-24 16:36:00,
2013-07-24 09:41:00,72.9,56.3,29.91,SE,124,0.0,1.0,56,0.00,,,0.00,WeatherCatV1.20B785,2013-07-24 16:41:00,
2013-07-24 09:46:00,73.0,56.8,29.91,SE,133,0.0,1.0,57,0.00,,,0.00,WeatherCatV1.20B785,2013-07-24 16:46:00,
2013-07-24 09:51:00,73.1,56.9,29.91,SE,134,1.0,1.0,57,0.00,,,0.00,WeatherCatV1.20B785,2013-07-24 16:51:00,
2013-07-24 09:56:00,73.3,57.1,29.91,SE,134,0.0,1.0,57,0.00,,,0.00,WeatherCatV1.20B785,2013-07-24 16:56:00,
2013-07-24 10:01:00,73.4,57.2,29.92,SE,134,0.0,0.0,57,0.00,,,0.00,WeatherCatV1.20B785,2013-07-24 17:01:00,
2013-07-24 10:06:00,73.5,56.8,29.92,SE,134,0.0,1.0,56,0.00,,,0.00,WeatherCatV1.20B785,2013-07-24 17:06:00,
2013-07-24 10:11:00,73.5,56.8,29.92,SSE,154,0.0,2.0,56,0.00,,,0.00,WeatherCatV1.20B785,2013-07-24 17:11:00,
2013-07-24 10:16:00,73.6,56.9,29.92,SSE,149,0.0,1.0,56,0.00,,,0.00,WeatherCatV1.20B785,2013-07-24 17:16:00,
2013-07-24 10:21:00,73.7,58.0,29.92,SE,145,0.0,1.0,58,0.00,,,0.00,WeatherCatV1.20B785,2013-07-24 17:21:00,
2013-07-24 10:26:00,73.9,57.7,29.92,SSE,147,0.0,0.0,57,0.00,,,0.00,WeatherCatV1.20B785,2013-07-24 17:26:00,
2013-07-24 10:31:00,74.0,57.8,29.92,SE,142,0.0,1.0,57,0.00,,,0.00,WeatherCatV1.20B785,2013-07-24 17:31:00,
2013-07-24 10:36:00,74.0,57.8,29.92,SE,142,0.0,1.0,57,0.00,,,0.00,WeatherCatV1.20B785,2013-07-24 17:36:00,
2013-07-24 10:41:00,74.5,58.2,29.92,SE,141,1.0,1.0,57,0.00,,,0.00,WeatherCatV1.20B785,2013-07-24 17:41:00,
2013-07-24 10:46:00,75.2,58.4,29.92,SE,139,1.0,1.0,56,0.00,,,0.00,WeatherCatV1.20B785,2013-07-24 17:46:00,
2013-07-24 10:51:00,75.4,59.1,29.92,SE,139,0.0,1.0,57,0.00,,,0.00,WeatherCatV1.20B785,2013-07-24 17:51:00,
2013-07-24 10:56:00,75.6,58.8,29.92,SSE,154,0.0,2.0,56,0.00,,,0.00,WeatherCatV1.20B785,2013-07-24 17:56:00,
2013-07-24 11:01:00,75.8,59.0,29.92,SE,145,0.0,1.0,56,0.00,,,0.00,WeatherCatV1.20B785,2013-07-24 18:01:00,
2013-07-24 11:06:00,76.1,59.2,29.92,SE,145,0.0,1.0,56,0.00,,,0.00,WeatherCatV1.20B785,2013-07-24 18:06:00,
2013-07-24 11:11:00,76.4,59.0,29.92,SE,145,0.0,1.0,55,0.00,,,0.00,WeatherCatV1.20B785,2013-07-24 18:11:00,
2013-07-24 11:16:00,76.7,59.3,29.92,SSE,148,0.0,0.0,55,0.00,,,0.00,WeatherCatV1.20B785,2013-07-24 18:16:00,
2013-07-24 11:21:00,77.4,59.4,29.92,SSE,152,0.0,2.0,54,0.00,,,0.00,WeatherCatV1.20B785,2013-07-24 18:21:00,
2013-07-24 11:26:00,78.1,60.1,29.92,SE,138,0.0,2.0,54,0.00,,,0.00,WeatherCatV1.20B785,2013-07-24 18:26:00,
2013-07-24 11:31:00,79.0,59.8,29.91,ESE,123,0.0,3.0,52,0.00,,,0.00,WeatherCatV1.20B785,2013-07-24 18:31:00,
2013-07-24 11:36:00,79.5,60.3,29.91,SSE,148,1.0,2.0,52,0.00,,,0.00,WeatherCatV1.20B785,2013-07-24 18:36:00,
2013-07-24 11:41:00,80.0,60.2,29.91,SE,128,0.0,2.0,51,0.00,,,0.00,WeatherCatV1.20B785,2013-07-24 18:41:00,
2013-07-24 11:46:00,80.5,60.7,29.92,SE,129,0.0,1.0,51,0.00,,,0.00,WeatherCatV1.20B785,2013-07-24 18:46:00,
2013-07-24 11:51:00,81.0,60.6,29.92,SSE,154,0.0,1.0,50,0.00,,,0.00,WeatherCatV1.20B785,2013-07-24 18:51:00,
2013-07-24 11:56:00,81.6,61.1,29.92,SSE,154,0.0,2.0,50,0.00,,,0.00,WeatherCatV1.20B785,2013-07-24 18:56:00,
2013-07-24 12:01:00,82.0,60.9,29.92,SE,145,0.0,2.0,49,0.00,,,0.00,WeatherCatV1.20B785,2013-07-24 19:01:00,
2013-07-24 12:06:00,82.3,60.6,29.92,SSE,147,0.0,1.0,48,0.00,,,0.00,WeatherCatV1.20B785,2013-07-24 19:06:00,
2013-07-24 12:11:00,82.8,61.1,29.92,SSE,147,0.0,2.0,48,0.00,,,0.00,WeatherCatV1.20B785,2013-07-24 19:11:00,
2013-07-24 12:16:00,83.2,60.2,29.92,SSE,147,0.0,1.0,46,0.00,,,0.00,WeatherCatV1.20B785,2013-07-24 19:16:00,
2013-07-24 12:21:00,83.3,60.9,29.92,SE,140,0.0,2.0,47,0.00,,,0.00,WeatherCatV1.20B785,2013-07-24 19:21:00,
2013-07-24 12:26:00,83.5,60.5,29.92,SE,127,0.0,2.0,46,0.00,,,0.00,WeatherCatV1.20B785,2013-07-24 19:26:00,
2013-07-24 12:31:00,83.8,60.8,29.92,ESE,119,0.0,2.0,46,0.00,,,0.00,WeatherCatV1.20B785,2013-07-24 19:31:00,
2013-07-24 12:36:00,84.2,61.1,29.92,SSE,156,3.0,3.0,46,0.00,,,0.00,WeatherCatV1.20B785,2013-07-24 19:36:00,
2013-07-24 12:41:00,84.6,61.5,29.92,SSE,156,1.0,1.0,46,0.00,,,0.00,WeatherCatV1.20B785,2013-07-24 19:41:00,
2013-07-24 12:46:00,85.1,61.3,29.91,SE,142,2.0,2.0,45,0.00,,,0.00,WeatherCatV1.20B785,2013-07-24 19:46:00,
2013-07-24 12:51:00,85.4,61.6,29.91,SE,131,0.0,2.0,45,0.00,,,0.00,WeatherCatV1.20B785,2013-07-24 19:51:00,
2013-07-24 12:56:00,85.5,61.1,29.91,SSE,147,1.0,2.0,44,0.00,,,0.00,WeatherCatV1.20B785,2013-07-24 19:56:00,
2013-07-24 13:01:00,85.5,60.4,29.91,SE,146,1.0,3.0,43,0.00,,,0.00,WeatherCatV1.20B785,2013-07-24 20:01:00,
2013-07-24 13:06:00,85.7,60.6,29.91,SSE,147,0.0,2.0,43,0.00,,,0.00,WeatherCatV1.20B785,2013-07-24 20:06:00,
2013-07-24 13:11:00,85.6,60.5,29.91,SSE,155,0.0,3.0,43,0.00,,,0.00,WeatherCatV1.20B785,2013-07-24 20:11:00,
2013-07-24 13:16:00,85.6,60.5,29.91,SSE,154,0.0,2.0,43,0.00,,,0.00,WeatherCatV1.20B785,2013-07-24 20:16:00,
2013-07-24 13:21:00,85.7,60.6,29.91,SSE,155,0.0,2.0,43,0.00,,,0.00,WeatherCatV1.20B785,2013-07-24 20:21:00,
2013-07-24 13:26:00,85.2,60.1,29.91,SE,142,0.0,1.0,43,0.00,,,0.00,WeatherCatV1.20B785,2013-07-24 20:26:00,
2013-07-24 13:31:00,84.6,60.2,29.91,SSE,154,0.0,1.0,44,0.00,,,0.00,WeatherCatV1.20B785,2013-07-24 20:31:00,
2013-07-24 13:36:00,84.5,60.2,29.91,SE,144,2.0,2.0,44,0.00,,,0.00,WeatherCatV1.20B785,2013-07-24 20:36:00,
2013-07-24 13:41:00,84.5,60.2,29.91,SE,134,0.0,1.0,44,0.00,,,0.00,WeatherCatV1.20B785,2013-07-24 20:41:00,
2013-07-24 13:46:00,84.9,59.9,29.91,SE,127,2.0,2.0,43,0.00,,,0.00,WeatherCatV1.20B785,2013-07-24 20:46:00,
2013-07-24 13:51:00,85.2,60.1,29.91,SE,142,1.0,2.0,43,0.00,,,0.00,WeatherCatV1.20B785,2013-07-24 20:51:00,
2013-07-24 13:56:00,85.7,59.9,29.91,SSE,165,3.0,3.0,42,0.00,,,0.00,WeatherCatV1.20B785,2013-07-24 20:56:00,
2013-07-24 14:01:00,85.0,60.0,29.91,South,176,1.0,2.0,43,0.00,,,0.00,WeatherCatV1.20B785,2013-07-24 21:01:00,
2013-07-24 14:06:00,84.8,60.4,29.91,SSE,150,1.0,2.0,44,0.00,,,0.00,WeatherCatV1.20B785,2013-07-24 21:06:00,
2013-07-24 14:11:00,84.7,59.7,29.91,SE,144,1.0,3.0,43,0.00,,,0.00,WeatherCatV1.20B785,2013-07-24 21:11:00,
2013-07-24 14:16:00,84.5,59.5,29.91,ESE,118,0.0,3.0,43,0.00,,,0.00,WeatherCatV1.20B785,2013-07-24 21:16:00,
2013-07-24 14:21:00,83.7,59.4,29.91,South,177,0.0,2.0,44,0.00,,,0.00,WeatherCatV1.20B785,2013-07-24 21:21:00,
2013-07-24 14:26:00,83.8,60.8,29.91,SSE,160,1.0,2.0,46,0.00,,,0.00,WeatherCatV1.20B785,2013-07-24 21:26:00,
2013-07-24 14:31:00,84.4,60.1,29.91,SE,146,0.0,1.0,44,0.00,,,0.00,WeatherCatV1.20B785,2013-07-24 21:31:00,
2013-07-24 14:36:00,84.6,60.2,29.91,South,169,0.0,2.0,44,0.00,,,0.00,WeatherCatV1.20B785,2013-07-24 21:36:00,
2013-07-24 14:41:00,84.9,59.9,29.91,SE,136,1.0,2.0,43,0.00,,,0.00,WeatherCatV1.20B785,2013-07-24 21:41:00,
2013-07-24 14:46:00,84.5,59.5,29.90,SE,146,2.0,2.0,43,0.00,,,0.00,WeatherCatV1.20B785,2013-07-24 21:46:00,
2013-07-24 14:51:00,83.8,59.5,29.90,SE,139,1.0,2.0,44,0.00,,,0.00,WeatherCatV1.20B785,2013-07-24 21:51:00,
2013-07-24 14:56:00,83.6,59.3,29.90,SSE,155,0.0,2.0,44,0.00,,,0.00,WeatherCatV1.20B785,2013-07-24 21:56:00,
2013-07-24 15:01:00,83.7,58.8,29.90,SSE,155,1.0,2.0,43,0.00,,,0.00,WeatherCatV1.20B785,2013-07-24 22:01:00,
2013-07-24 15:06:00,83.5,59.9,29.90,SSE,158,0.0,1.0,45,0.00,,,0.00,WeatherCatV1.20B785,2013-07-24 22:06:00,
2013-07-24 15:11:00,83.4,59.8,29.90,SSE,156,1.0,2.0,45,0.00,,,0.00,WeatherCatV1.20B785,2013-07-24 22:11:00,
2013-07-24 15:16:00,83.5,59.3,29.90,SE,145,1.0,1.0,44,0.00,,,0.00,WeatherCatV1.20B785,2013-07-24 22:16:00,
2013-07-24 15:21:00,83.4,59.8,29.90,SE,145,0.0,2.0,45,0.00,,,0.00,WeatherCatV1.20B785,2013-07-24 22:21:00,
2013-07-24 15:26:00,83.5,59.9,29.90,SSE,147,0.0,0.0,45,0.00,,,0.00,WeatherCatV1.20B785,2013-07-24 22:26:00,
2013-07-24 15:31:00,83.4,59.2,29.89,SSE,159,0.0,2.0,44,0.00,,,0.00,WeatherCatV1.20B785,2013-07-24 22:31:00,
2013-07-24 15:36:00,83.0,59.4,29.89,SSE,152,0.0,1.0,45,0.00,,,0.00,WeatherCatV1.20B785,2013-07-24 22:36:00,
2013-07-24 15:41:00,82.7,59.2,29.89,SSE,152,1.0,1.0,45,0.00,,,0.00,WeatherCatV1.20B785,2013-07-24 22:41:00,
2013-07-24 15:46:00,82.4,59.5,29.89,South,175,2.0,2.0,46,0.00,,,0.00,WeatherCatV1.20B785,2013-07-24 22:46:00,
2013-07-24 15:51:00,82.3,58.8,29.89,SSE,164,0.0,2.0,45,0.00,,,0.00,WeatherCatV1.20B785,2013-07-24 22:51:00,
2013-07-24 15:56:00,82.4,58.9,29.89,SSE,163,0.0,1.0,45,0.00,,,0.00,WeatherCatV1.20B785,2013-07-24 22:56:00,
2013-07-24 16:01:00,82.3,59.4,29.88,SSE,152,0.0,1.0,46,0.00,,,0.00,WeatherCatV1.20B785,2013-07-24 23:01:00,
2013-07-24 16:06:00,82.3,59.4,29.88,SSE,151,1.0,2.0,46,0.00,,,0.00,WeatherCatV1.20B785,2013-07-24 23:06:00,
2013-07-24 16:11:00,82.3,58.8,29.88,SSE,160,0.0,3.0,45,0.00,,,0.00,WeatherCatV1.20B785,2013-07-24 23:11:00,
2013-07-24 16:16:00,82.1,59.2,29.88,SSE,164,0.0,2.0,46,0.00,,,0.00,WeatherCatV1.20B785,2013-07-24 23:16:00,
2013-07-24 16:21:00,82.0,59.2,29.88,SSE,154,0.0,2.0,46,0.00,,,0.00,WeatherCatV1.20B785,2013-07-24 23:21:00,
2013-07-24 16:26:00,81.9,59.7,29.88,SSE,154,0.0,0.0,47,0.00,,,0.00,WeatherCatV1.20B785,2013-07-24 23:26:00,
2013-07-24 16:31:00,81.8,59.0,29.88,SE,142,0.0,1.0,46,0.00,,,0.00,WeatherCatV1.20B785,2013-07-24 23:31:00,
2013-07-24 16:36:00,81.7,59.5,29.88,SSE,164,1.0,1.0,47,0.00,,,0.00,WeatherCatV1.20B785,2013-07-24 23:36:00,
2013-07-24 16:41:00,81.6,58.8,29.88,SE,145,0.0,2.0,46,0.00,,,0.00,WeatherCatV1.20B785,2013-07-24 23:41:00,
2013-07-24 16:46:00,81.2,59.0,29.88,SSE,161,0.0,1.0,47,0.00,,,0.00,WeatherCatV1.20B785,2013-07-24 23:46:00,
2013-07-24 16:51:00,80.9,58.8,29.88,SSE,151,1.0,1.0,47,0.00,,,0.00,WeatherCatV1.20B785,2013-07-24 23:51:00,
2013-07-24 16:56:00,80.6,58.5,29.88,SSE,152,0.0,1.0,47,0.00,,,0.00,WeatherCatV1.20B785,2013-07-24 23:56:00,
2013-07-24 17:01:00,80.2,58.7,29.88,SSE,152,0.0,2.0,48,0.00,,,0.00,WeatherCatV1.20B785,2013-07-25 00:01:00,
2013-07-24 17:06:00,80.0,58.5,29.88,SSE,152,0.0,1.0,48,0.00,,,0.00,WeatherCatV1.20B785,2013-07-25 00:06:00,
2013-07-24 17:11:00,79.6,58.7,29.88,SSE,152,0.0,1.0,49,0.00,,,0.00,WeatherCatV1.20B785,2013-07-25 00:11:00,
2013-07-24 17:16:00,79.3,58.5,29.88,SSE,147,0.0,0.0,49,0.00,,,0.00,WeatherCatV1.20B785,2013-07-25 00:16:00,
2013-07-24 17:21:00,79.1,58.3,29.88,SSE,147,0.0,0.0,49,0.00,,,0.00,WeatherCatV1.20B785,2013-07-25 00:21:00,
2013-07-24 17:26:00,78.8,58.0,29.88,SSE,147,0.0,1.0,49,0.00,,,0.00,WeatherCatV1.20B785,2013-07-25 00:26:00,
2013-07-24 17:31:00,78.5,58.3,29.88,SSE,148,0.0,1.0,50,0.00,,,0.00,WeatherCatV1.20B785,2013-07-25 00:31:00,
2013-07-24 17:36:00,78.4,58.2,29.88,SSE,148,0.0,0.0,50,0.00,,,0.00,WeatherCatV1.20B785,2013-07-25 00:36:00,
2013-07-24 17:41:00,78.4,58.8,29.88,SSE,148,0.0,0.0,51,0.00,,,0.00,WeatherCatV1.20B785,2013-07-25 00:41:00,
2013-07-24 17:46:00,78.5,58.3,29.88,NW,326,0.0,3.0,50,0.00,,,0.00,WeatherCatV1.20B785,2013-07-25 00:46:00,
2013-07-24 17:51:00,79.0,59.3,29.88,NNW,327,0.0,0.0,51,0.00,,,0.00,WeatherCatV1.20B785,2013-07-25 00:51:00,
2013-07-24 17:56:00,79.1,58.8,29.88,NNW,327,0.0,0.0,50,0.00,,,0.00,WeatherCatV1.20B785,2013-07-25 00:56:00,
2013-07-24 18:01:00,79.1,58.8,29.87,NNW,327,0.0,0.0,50,0.00,,,0.00,WeatherCatV1.20B785,2013-07-25 01:01:00,
2013-07-24 18:06:00,79.3,59.0,29.87,NNW,331,0.0,1.0,50,0.00,,,0.00,WeatherCatV1.20B785,2013-07-25 01:06:00,
2013-07-24 18:11:00,79.6,57.0,29.87,NNW,341,0.0,4.0,46,0.00,,,0.00,WeatherCatV1.20B785,2013-07-25 01:11:00,
2013-07-24 18:16:00,80.2,56.9,29.86,NNW,335,1.0,1.0,45,0.00,,,0.00,WeatherCatV1.20B785,2013-07-25 01:16:00,
2013-07-24 18:21:00,80.7,56.7,29.86,NE,47,0.0,1.0,44,0.00,,,0.00,WeatherCatV1.20B785,2013-07-25 01:21:00,
2013-07-24 18:26:00,80.9,56.9,29.86,NNW,330,3.0,3.0,44,0.00,,,0.00,WeatherCatV1.20B785,2013-07-25 01:26:00,
2013-07-24 18:31:00,81.0,56.4,29.86,NNW,329,2.0,3.0,43,0.00,,,0.00,WeatherCatV1.20B785,2013-07-25 01:31:00,
2013-07-24 18:36:00,81.0,57.0,29.86,NNE,31,1.0,3.0,44,0.00,,,0.00,WeatherCatV1.20B785,2013-07-25 01:36:00,
2013-07-24 18:41:00,80.9,56.3,29.86,NNW,339,0.0,2.0,43,0.00,,,0.00,WeatherCatV1.20B785,2013-07-25 01:41:00,
2013-07-24 18:46:00,80.8,56.8,29.86,NNW,333,1.0,2.0,44,0.00,,,0.00,WeatherCatV1.20B785,2013-07-25 01:46:00,
2013-07-24 18:51:00,80.5,56.5,29.86,NNW,330,3.0,5.0,44,0.00,,,0.00,WeatherCatV1.20B785,2013-07-25 01:51:00,
2013-07-24 18:56:00,80.3,56.4,29.86,NNW,329,1.0,5.0,44,0.00,,,0.00,WeatherCatV1.20B785,2013-07-25 01:56:00,
2013-07-24 19:01:00,79.9,56.6,29.86,NNW,342,2.0,5.0,45,0.00,,,0.00,WeatherCatV1.20B785,2013-07-25 02:01:00,
2013-07-24 19:06:00,79.7,56.5,29.86,NNW,333,3.0,5.0,45,0.00,,,0.00,WeatherCatV1.20B785,2013-07-25 02:06:00,
2013-07-24 19:11:00,79.4,56.2,29.86,NNW,338,2.0,3.0,45,0.00,,,0.00,WeatherCatV1.20B785,2013-07-25 02:11:00,
2013-07-24 19:16:00,79.1,56.5,29.86,NNW,328,6.0,6.0,46,0.00,,,0.00,WeatherCatV1.20B785,2013-07-25 02:16:00,
2013-07-24 19:21:00,78.7,55.5,29.86,North,353,4.0,6.0,45,0.00,,,0.00,WeatherCatV1.20B785,2013-07-25 02:21:00,
2013-07-24 19:26:00,78.1,55.6,29.86,NW,323,5.0,6.0,46,0.00,,,0.00,WeatherCatV1.20B785,2013-07-25 02:26:00,
2013-07-24 19:31:00,77.6,55.2,29.86,NNW,337,3.0,6.0,46,0.00,,,0.00,WeatherCatV1.20B785,2013-07-25 02:31:00,
2013-07-24 19:36:00,77.2,55.4,29.86,NW,324,6.0,6.0,47,0.00,,,0.00,WeatherCatV1.20B785,2013-07-25 02:36:00,
2013-07-24 19:41:00,76.7,55.5,29.86,NNW,335,4.0,6.0,48,0.00,,,0.00,WeatherCatV1.20B785,2013-07-25 02:41:00,
2013-07-24 19:46:00,76.3,55.2,29.86,NNW,342,3.0,7.0,48,0.00,,,0.00,WeatherCatV1.20B785,2013-07-25 02:46:00,
2013-07-24 19:51:00,75.8,55.3,29.86,NW,321,5.0,5.0,49,0.00,,,0.00,WeatherCatV1.20B785,2013-07-25 02:51:00,
2013-07-24 19:56:00,75.4,55.5,29.86,NNW,337,5.0,6.0,50,0.00,,,0.00,WeatherCatV1.20B785,2013-07-25 02:56:00,
2013-07-24 20:01:00,74.9,55.0,29.86,NNW,334,4.0,6.0,50,0.00,,,0.00,WeatherCatV1.20B785,2013-07-25 03:01:00,
2013-07-24 20:06:00,74.6,55.3,29.86,NNW,328,4.0,5.0,51,0.00,,,0.00,WeatherCatV1.20B785,2013-07-25 03:06:00,
2013-07-24 20:11:00,74.3,55.5,29.86,NNW,332,4.0,7.0,52,0.00,,,0.00,WeatherCatV1.20B785,2013-07-25 03:11:00,
2013-07-24 20:16:00,74.0,55.2,29.86,NNE,20,2.0,5.0,52,0.00,,,0.00,WeatherCatV1.20B785,2013-07-25 03:16:00,
2013-07-24 20:21:00,73.7,55.0,29.86,NNW,331,4.0,5.0,52,0.00,,,0.00,WeatherCatV1.20B785,2013-07-25 03:21:00,
2013-07-24 20:26:00,73.5,54.8,29.86,NW,321,4.0,5.0,52,0.00,,,0.00,WeatherCatV1.20B785,2013-07-25 03:26:00,
2013-07-24 20:31:00,73.2,55.0,29.86,NNW,347,4.0,6.0,53,0.00,,,0.00,WeatherCatV1.20B785,2013-07-25 03:31:00,
2013-07-24 20:36:00,72.8,54.7,29.86,NNW,328,4.0,7.0,53,0.00,,,0.00,WeatherCatV1.20B785,2013-07-25 03:36:00,
2013-07-24 20:41:00,72.5,54.9,29.86,NNW,341,3.0,4.0,54,0.00,,,0.00,WeatherCatV1.20B785,2013-07-25 03:41:00,
2013-07-24 20:46:00,72.3,54.7,29.86,North,351,4.0,4.0,54,0.00,,,0.00,WeatherCatV1.20B785,2013-07-25 03:46:00,
2013-07-24 20:51:00,72.5,54.9,29.86,North,350,1.0,5.0,54,0.00,,,0.00,WeatherCatV1.20B785,2013-07-25 03:51:00,
2013-07-24 20:56:00,72.7,55.1,29.86,NNW,337,3.0,4.0,54,0.00,,,0.00,WeatherCatV1.20B785,2013-07-25 03:56:00,
2013-07-24 21:01:00,72.9,54.8,29.86,NNW,336,2.0,3.0,53,0.00,,,0.00,WeatherCatV1.20B785,2013-07-25 04:01:00,
2013-07-24 21:06:00,73.0,54.8,29.86,NNW,340,1.0,3.0,53,0.00,,,0.00,WeatherCatV1.20B785,2013-07-25 04:06:00,
2013-07-24 21:11:00,73.3,55.1,29.86,NNW,339,0.0,2.0,53,0.00,,,0.00,WeatherCatV1.20B785,2013-07-25 04:11:00,
2013-07-24 21:16:00,73.5,55.3,29.86,NNW,333,0.0,1.0,53,0.00,,,0.00,WeatherCatV1.20B785,2013-07-25 04:16:00,
2013-07-24 21:21:00,73.6,55.4,29.86,NNW,333,2.0,2.0,53,0.00,,,0.00,WeatherCatV1.20B785,2013-07-25 04:21:00,
2013-07-24 21:26:00,73.7,55.0,29.86,NNW,339,1.0,3.0,52,0.00,,,0.00,WeatherCatV1.20B785,2013-07-25 04:26:00,
2013-07-24 21:31:00,73.9,55.2,29.87,NNW,331,3.0,6.0,52,0.00,,,0.00,WeatherCatV1.20B785,2013-07-25 04:31:00,
2013-07-24 21:36:00,73.8,55.1,29.87,NNW,335,0.0,4.0,52,0.00,,,0.00,WeatherCatV1.20B785,2013-07-25 04:36:00,
2013-07-24 21:41:00,73.6,55.4,29.87,NNW,331,2.0,2.0,53,0.00,,,0.00,WeatherCatV1.20B785,2013-07-25 04:41:00,
2013-07-24 21:46:00,73.6,55.4,29.87,NNW,347,0.0,2.0,53,0.00,,,0.00,WeatherCatV1.20B785,2013-07-25 04:46:00,
2013-07-24 21:51:00,73.5,55.3,29.87,NNW,344,2.0,2.0,53,0.00,,,0.00,WeatherCatV1.20B785,2013-07-25 04:51:00,
2013-07-24 21:56:00,73.3,55.6,29.87,NNW,344,0.0,0.0,54,0.00,,,0.00,WeatherCatV1.20B785,2013-07-25 04:56:00,
2013-07-24 22:01:00,73.1,54.9,29.87,NNW,344,0.0,2.0,53,0.00,,,0.00,WeatherCatV1.20B785,2013-07-25 05:01:00,
2013-07-24 22:06:00,73.2,55.0,29.87,NNW,327,2.0,3.0,53,0.00,,,0.00,WeatherCatV1.20B785,2013-07-25 05:06:00,
2013-07-24 22:11:00,73.5,54.8,29.87,NNW,327,3.0,3.0,52,0.00,,,0.00,WeatherCatV1.20B785,2013-07-25 05:11:00,
2013-07-24 22:16:00,73.6,54.9,29.87,NNW,329,2.0,4.0,52,0.00,,,0.00,WeatherCatV1.20B785,2013-07-25 05:16:00,
2013-07-24 22:21:00,73.8,54.5,29.87,North,350,2.0,2.0,51,0.00,,,0.00,WeatherCatV1.20B785,2013-07-25 05:21:00,
2013-07-24 22:26:00,73.8,54.5,29.87,NNW,331,1.0,2.0,51,0.00,,,0.00,WeatherCatV1.20B785,2013-07-25 05:26:00,
2013-07-24 22:31:00,74.0,54.2,29.87,NNW,329,0.0,0.0,50,0.00,,,0.00,WeatherCatV1.20B785,2013-07-25 05:31:00,
2013-07-24 22:36:00,73.8,54.5,29.87,NNW,329,0.0,0.0,51,0.00,,,0.00,WeatherCatV1.20B785,2013-07-25 05:36:00,
2013-07-24 22:41:00,73.1,54.4,29.87,NNW,329,0.0,0.0,52,0.00,,,0.00,WeatherCatV1.20B785,2013-07-25 05:41:00,
2013-07-24 22:46:00,72.5,54.4,29.87,NNW,329,0.0,0.0,53,0.00,,,0.00,WeatherCatV1.20B785,2013-07-25 05:46:00,
2013-07-24 22:51:00,72.2,54.1,29.87,NNW,329,0.0,0.0,53,0.00,,,0.00,WeatherCatV1.20B785,2013-07-25 05:51:00,
2013-07-24 22:56:00,72.0,53.9,29.87,NNW,329,0.0,0.0,53,0.00,,,0.00,WeatherCatV1.20B785,2013-07-25 05:56:00,
2013-07-24 23:01:00,71.9,54.3,29.87,NNW,329,0.0,0.0,54,0.00,,,0.00,WeatherCatV1.20B785,2013-07-25 06:01:00,
2013-07-24 23:06:00,71.7,54.2,29.87,NNW,329,0.0,0.0,54,0.00,,,0.00,WeatherCatV1.20B785,2013-07-25 06:06:00,
2013-07-24 23:11:00,71.6,54.1,29.87,NNW,329,0.0,1.0,54,0.00,,,0.00,WeatherCatV1.20B785,2013-07-25 06:11:00,
2013-07-24 23:16:00,71.5,51.9,29.87,NNW,333,3.0,4.0,50,0.00,,,0.00,WeatherCatV1.20B785,2013-07-25 06:16:00,
2013-07-24 23:21:00,72.1,51.3,29.87,NW,317,3.0,5.0,48,0.00,,,0.00,WeatherCatV1.20B785,2013-07-25 06:21:00,
2013-07-24 23:26:00,73.0,51.6,29.87,NNW,338,5.0,6.0,47,0.00,,,0.00,WeatherCatV1.20B785,2013-07-25 06:26:00,
2013-07-24 23:31:00,73.5,51.4,29.87,NNW,335,3.0,5.0,46,0.00,,,0.00,WeatherCatV1.20B785,2013-07-25 06:31:00,
2013-07-24 23:36:00,73.8,51.1,29.87,North,2,0.0,2.0,45,0.00,,,0.00,WeatherCatV1.20B785,2013-07-25 06:36:00,
2013-07-24 23:41:00,73.9,51.2,29.87,NNW,329,0.0,1.0,45,0.00,,,0.00,WeatherCatV1.20B785,2013-07-25 06:41:00,
2013-07-24 23:46:00,73.9,51.8,29.87,NNW,329,0.0,0.0,46,0.00,,,0.00,WeatherCatV1.20B785,2013-07-25 06:46:00,
2013-07-24 23:51:00,73.8,52.3,29.87,NNW,329,0.0,0.0,47,0.00,,,0.00,WeatherCatV1.20B785,2013-07-25 06:51:00,
2013-07-24 23:56:00,73.6,52.1,29.87,NNW,329,0.0,0.0,47,0.00,,,0.00,WeatherCatV1.20B785,2013-07-25 06:56:00,